Location: Unspecified
(0.0000°N, 0.0000°E)
Time: 06:37:09
(UTC+00:00)

CERISE - Pass Details

Date: 24 May 2026
Orbit: 458 x 464 km, 98.3° (Epoch: 10 June)

Event Time Altitude Azimuth Distance (km) Brightness Sun altitude
Rises 19:48:55 0° 6° (N) 2,483 9.9 -26.0°
Reaches altitude 10° 19:50:58 10° 3° (N) 1,610 8.9 -26.5°
Enters shadow 19:51:04 11° 3° (N) 1,565 8.8 -26.5°
